Location: Academy at Carrie F Thomas
(32.8490°N, 97.2053°W)
Time: 19:46:47
(UTC+00:00)

Cosmos 1515 Rocket - Pass Details

Date: 01 July 2022
Orbit: 604 x 630 km, 82.5° (Epoch: 17 August)

Event Time Altitude Azimuth Distance (km) Brightness Sun altitude
Rises 09:37:38 0° 354° (N) 2,895 7.6 -18.8°
Reaches altitude 10° 09:39:53 10° 355° (N) 1,981 6.7 -18.4°
Maximum altitude 09:44:16 85° 83° (E) 619 3.5 -17.8°
Enters shadow 09:47:29 18° 173° (S) 1,512 5.2 -17.3°
